This is the latest recevied weather packets stored in our database for station/object KJ7IVE-13. If no packets are shown the sender has not sent any weather packets the latest 1 day(s).
| Time | Temp. | Humidity | Pressure | Rain* | Wind** | Luminosity | Snow |
|---|---|---|---|---|---|---|---|
| 1778096701 | 15.56° C | 10% | 1021.2 hPa | 0 mm | - | 637 W/m² | - |
| 1778095184 | 14.44° C | 10% | 1021.2 hPa | 0 mm | - | 665 W/m² | - |
| 1778094268 | 14.44° C | 10% | 1021 hPa | 0 mm | - | 723 W/m² | - |
| 1778093965 | 15.56° C | 10% | 1021.4 hPa | 0 mm | - | 718 W/m² | - |
| 1778093662 | 15° C | 10% | 1021.1 hPa | 0 mm | - | 711 W/m² | - |
| 1778093354 | 14.44° C | 10% | 1021.2 hPa | 0 mm | - | 707 W/m² | - |
| 1778091535 | 13.89° C | 10% | 1021.2 hPa | 0 mm | - | 708 W/m² | - |
| 1778090930 | 13.33° C | 10% | 1021.5 hPa | 0 mm | - | 707 W/m² | - |
| 1778088505 | 12.22° C | 10% | 1021.4 hPa | 0 mm | - | 844 W/m² | - |
| 1778087899 | 13.33° C | 10% | 1021.2 hPa | 0 mm | - | 800 W/m² | - |
| 1778087596 | 12.78° C | 10% | 1021.1 hPa | 0 mm | - | 760 W/m² | - |
| 1778086989 | 12.22° C | 10% | 1021.2 hPa | 0 mm | - | 740 W/m² | - |
| 1778086688 | 12.22° C | 10% | 1021 hPa | 0 mm | - | 751 W/m² | - |
| 1778085773 | 11.11° C | 10% | 1021.1 hPa | 0 mm | - | 714 W/m² | - |
| 1778085470 | 11.11° C | 10% | 1021 hPa | 0 mm | - | 706 W/m² | - |
| 1778084861 | 11.11° C | 10% | 1021.1 hPa | 0 mm | - | 680 W/m² | - |
| 1778084559 | 11.11° C | 10% | 1020.7 hPa | 0 mm | - | 668 W/m² | - |
| 1778084256 | 11.11° C | 10% | 1020.9 hPa | 0 mm | - | 638 W/m² | - |
| 1778083953 | 10.56° C | 10% | 1020.8 hPa | 0 mm | - | 619 W/m² | - |
| 1778081604 | 10.56° C | 10% | 1020.9 hPa | 0 mm | - | 406 W/m² | - |
| 1778081301 | 10° C | 10% | 1020.7 hPa | 0 mm | - | 397 W/m² | - |
| 1778080998 | 10° C | 10% | 1020.4 hPa | 0 mm | - | 337 W/m² | - |
| 1778080697 | 10.56° C | 10% | 1020.7 hPa | 0 mm | - | 329 W/m² | - |
| 1778080393 | 10° C | 10% | 1020.2 hPa | 0 mm | - | 322 W/m² | - |
| 1778079484 | 10° C | 10% | 1020.2 hPa | 0 mm | - | 273 W/m² | - |
* Rain latest hour (hover to see other rain measurements)
** Current wind speed in m/s (hover to see current wind gust speed)